When you browse on this site, cookies collect data to enhance your experience and personalize the content and advertising you see.
Visit our Privacy Policy to learn more. By continuing to use the site, you agree to this use of cookies and data.
  • In Latvia
  • List of Countries
  • For 7 days
  • Water Temperature
  • Satellite Maps
  • Weather Map
  • Weather Widgets
  • user-avatar
    Login

    Hourly Weather La Rioja

    Today, 18 July, Thursday

    Time Temperature Precipitation Wind Pressure Humidity
    00:00 +16°C° 0 mm 1 mps 712 mmHg 61%
    01:00 +15°C° 0 mm 1 mps 712 mmHg 63%
    02:00 +14°C° 0 mm 0 mps 711 mmHg 65%
    03:00 +15°C° 0 mm 1 mps 711 mmHg 64%
    04:00 +14°C° 0 mm 1 mps 711 mmHg 64%
    05:00 +14°C° 0 mm 1 mps 711 mmHg 64%
    06:00 +14°C° 0 mm 2 mps 712 mmHg 63%
    07:00 +14°C° 0 mm 3 mps 713 mmHg 62%
    08:00 +14°C° 0 mm 3 mps 714 mmHg 61%
    09:00 +15°C° 0 mm 5 mps 715 mmHg 57%
    10:00 +17°C° 0 mm 6 mps 716 mmHg 54%
    11:00 +20°C° 0 mm 7 mps 717 mmHg 51%
    12:00 +20°C° 0 mm 7 mps 718 mmHg 48%
    13:00 +20°C° 0 mm 8 mps 718 mmHg 45%
    14:00 +20°C° 0 mm 8 mps 718 mmHg 43%
    15:00 +20°C° 0 mm 7 mps 718 mmHg 42%
    16:00 +19°C° 0 mm 6 mps 718 mmHg 42%
    17:00 +17°C° 0 mm 5 mps 718 mmHg 42%
    18:00 +17°C° 0 mm 4 mps 718 mmHg 45%
    19:00 +14°C° 0 mm 4 mps 718 mmHg 47%
    20:00 +13°C° 0 mm 3 mps 719 mmHg 50%
    21:00 +13°C° 0 mm 2 mps 719 mmHg 51%
    22:00 +12°C° 0 mm 2 mps 719 mmHg 53%
    23:00 +12°C° 0 mm 2 mps 719 mmHg 55%

    Tomorrow, 19 July, Friday

    Time Temperature Precipitation Wind Pressure Humidity
    00:00 +10°C° 0 mm 2 mps 718 mmHg 56%
    01:00 +11°C° 0 mm 1 mps 718 mmHg 58%
    02:00 +11°C° 0 mm 1 mps 718 mmHg 60%
    03:00 +10°C° 0 mm 1 mps 717 mmHg 62%
    04:00 +10°C° 0 mm 1 mps 717 mmHg 63%
    05:00 +9°C° 0 mm 1 mps 716 mmHg 65%
    06:00 +10°C° 0 mm 1 mps 716 mmHg 63%
    07:00 +10°C° 0 mm 1 mps 716 mmHg 62%
    08:00 +10°C° 0 mm 1 mps 716 mmHg 60%
    09:00 +13°C° 0 mm 1 mps 715 mmHg 53%
    10:00 +15°C° 0 mm 1 mps 715 mmHg 46%
    11:00 +18°C° 0 mm 1 mps 714 mmHg 39%
    12:00 +19°C° 0 mm 1 mps 713 mmHg 38%
    13:00 +20°C° 0 mm 1 mps 712 mmHg 36%
    14:00 +21°C° 0 mm 1 mps 711 mmHg 35%
    15:00 +21°C° 0 mm 1 mps 711 mmHg 35%
    16:00 +21°C° 0 mm 1 mps 711 mmHg 36%
    17:00 +21°C° 0 mm 1 mps 711 mmHg 36%
    18:00 +20°C° 0 mm 1 mps 710 mmHg 40%
    19:00 +18°C° 0 mm 1 mps 710 mmHg 43%
    20:00 +16°C° 0 mm 2 mps 710 mmHg 47%
    21:00 +15°C° 0 mm 1 mps 710 mmHg 50%
    22:00 +14°C° 0 mm 1 mps 709 mmHg 53%
    23:00 +14°C° 0 mm 1 mps 709 mmHg 56%

    Day after tomorrow, 20 July, Saturday

    Time Temperature Precipitation Wind Pressure Humidity
    00:00 +13°C° 0 mm 1 mps 709 mmHg 61%
    01:00 +13°C° 0 mm 1 mps 708 mmHg 66%
    02:00 +12°C° 0 mm 1 mps 708 mmHg 71%
    03:00 +12°C° 0 mm 1 mps 708 mmHg 72%
    04:00 +12°C° 0 mm 1 mps 707 mmHg 73%
    05:00 +12°C° 0 mm 1 mps 707 mmHg 74%
    06:00 +12°C° 0 mm 1 mps 707 mmHg 72%
    07:00 +12°C° 0 mm 1 mps 708 mmHg 69%
    08:00 +13°C° 0 mm 1 mps 708 mmHg 66%
    09:00 +15°C° 0 mm 2 mps 708 mmHg 60%
    10:00 +18°C° 0 mm 2 mps 708 mmHg 53%
    11:00 +20°C° 0 mm 2 mps 708 mmHg 47%
    12:00 +21°C° 0 mm 2 mps 708 mmHg 46%
    13:00 +23°C° 0 mm 2 mps 707 mmHg 45%
    14:00 +24°C° 0 mm 2 mps 706 mmHg 44%
    15:00 +22°C° 0 mm 3 mps 706 mmHg 47%
    16:00 +21°C° 0 mm 3 mps 706 mmHg 51%
    17:00 +21°C° 0 mm 3 mps 705 mmHg 54%
    18:00 +20°C° 0 mm 2 mps 705 mmHg 59%
    19:00 +18°C° 0 mm 2 mps 705 mmHg 64%
    20:00 +17°C° 0 mm 2 mps 705 mmHg 69%
    21:00 +16°C° 0 mm 1 mps 705 mmHg 68%
    22:00 +16°C° 0 mm 1 mps 705 mmHg 68%
    23:00 +15°C° 0 mm 1 mps 705 mmHg 68%

    21 July, Sunday

    Time Temperature Precipitation Wind Pressure Humidity
    00:00 +15°C° 0 mm 1 mps 705 mmHg 68%
    01:00 +14°C° 0 mm 1 mps 704 mmHg 67%
    02:00 +14°C° 0 mm 1 mps 703 mmHg 67%
    03:00 +14°C° 0 mm 1 mps 703 mmHg 68%
    04:00 +12°C° 0 mm 0 mps 703 mmHg 69%
    05:00 +12°C° 0 mm 0 mps 703 mmHg 71%
    06:00 +14°C° 0 mm 1 mps 703 mmHg 67%
    07:00 +14°C° 0 mm 1 mps 703 mmHg 63%
    08:00 +14°C° 0 mm 1 mps 704 mmHg 60%
    09:00 +18°C° 0 mm 1 mps 704 mmHg 52%
    10:00 +21°C° 0 mm 1 mps 705 mmHg 44%
    11:00 +24°C° 0 mm 1 mps 705 mmHg 37%
    12:00 +25°C° 0 mm 1 mps 705 mmHg 35%
    13:00 +26°C° 0 mm 1 mps 705 mmHg 34%
    14:00 +26°C° 0 mm 2 mps 704 mmHg 32%
    15:00 +26°C° 0 mm 2 mps 705 mmHg 33%
    16:00 +25°C° 0 mm 1 mps 705 mmHg 34%
    17:00 +25°C° 0 mm 1 mps 705 mmHg 35%
    18:00 +23°C° 0 mm 2 mps 706 mmHg 39%
    19:00 +20°C° 0 mm 3 mps 706 mmHg 42%
    20:00 +19°C° 0 mm 4 mps 707 mmHg 46%
    21:00 +18°C° 0 mm 4 mps 708 mmHg 49%
    22:00 +16°C° 0 mm 5 mps 708 mmHg 52%
    23:00 +15°C° 0 mm 6 mps 709 mmHg 56%

    22 July, Monday

    Time Temperature Precipitation Wind Pressure Humidity
    00:00 +14°C° 0.2 mm 5 mps 710 mmHg 57%
    01:00 +13°C° 0.2 mm 5 mps 710 mmHg 59%
    02:00 +12°C° 0.2 mm 5 mps 711 mmHg 61%
    03:00 +10°C° 0 mm 5 mps 712 mmHg 57%
    04:00 +9°C° 0 mm 5 mps 713 mmHg 54%
    05:00 +9°C° 0 mm 5 mps 713 mmHg 50%
    06:00 +8°C° 0 mm 5 mps 715 mmHg 50%
    07:00 +8°C° 0 mm 5 mps 716 mmHg 49%
    08:00 +7°C° 0 mm 5 mps 717 mmHg 49%
    09:00 +8°C° 0 mm 5 mps 717 mmHg 47%
    10:00 +8°C° 0 mm 4 mps 718 mmHg 45%
    11:00 +10°C° 0 mm 4 mps 718 mmHg 43%
    12:00 +10°C° 0 mm 4 mps 717 mmHg 40%
    13:00 +11°C° 0 mm 4 mps 717 mmHg 37%
    14:00 +12°C° 0 mm 4 mps 716 mmHg 34%
    15:00 +12°C° 0 mm 4 mps 716 mmHg 34%
    16:00 +11°C° 0 mm 4 mps 717 mmHg 34%
    17:00 +11°C° 0 mm 4 mps 717 mmHg 34%
    18:00 +10°C° 0 mm 3 mps 718 mmHg 39%
    19:00 +9°C° 0 mm 2 mps 719 mmHg 45%
    20:00 +8°C° 0 mm 2 mps 719 mmHg 50%
    21:00 +7°C° 0 mm 2 mps 720 mmHg 54%
    22:00 +7°C° 0 mm 2 mps 720 mmHg 58%
    23:00 +7°C° 0 mm 2 mps 721 mmHg 62%

    23 July, Tuesday

    Time Temperature Precipitation Wind Pressure Humidity
    00:00 +7°C° 0 mm 1 mps 721 mmHg 62%
    01:00 +7°C° 0 mm 1 mps 721 mmHg 62%
    02:00 +7°C° 0 mm 1 mps 721 mmHg 62%
    03:00 +6°C° 0 mm 1 mps 721 mmHg 64%
    04:00 +6°C° 0 mm 1 mps 721 mmHg 66%
    05:00 +6°C° 0 mm 1 mps 721 mmHg 68%
    06:00 +6°C° 0 mm 1 mps 722 mmHg 66%
    07:00 +7°C° 0 mm 1 mps 723 mmHg 64%
    08:00 +7°C° 0 mm 1 mps 723 mmHg 63%
    09:00 +8°C° 0 mm 1 mps 724 mmHg 58%
    10:00 +8°C° 0 mm 2 mps 724 mmHg 53%
    11:00 +9°C° 0 mm 2 mps 724 mmHg 49%
    12:00 +10°C° 0 mm 2 mps 724 mmHg 47%
    13:00 +10°C° 0 mm 2 mps 723 mmHg 45%
    14:00 +11°C° 0 mm 3 mps 723 mmHg 42%
    15:00 +12°C° 0 mm 2 mps 723 mmHg 41%
    16:00 +12°C° 0 mm 2 mps 723 mmHg 40%
    17:00 +10°C° 0 mm 2 mps 723 mmHg 38%
    18:00 +9°C° 0 mm 2 mps 723 mmHg 41%
    19:00 +9°C° 0 mm 1 mps 724 mmHg 43%
    20:00 +8°C° 0 mm 1 mps 724 mmHg 46%
    21:00 +8°C° 0 mm 1 mps 725 mmHg 47%
    22:00 +7°C° 0 mm 1 mps 725 mmHg 48%
    23:00 +7°C° 0 mm 1 mps 725 mmHg 49%
    Show more